Grady, Mississippi
Current Conditions -  °F | °C
As of 7:15 PM on Tuesday 21 Oct 2014 (Local Time) from KSTF Reporting Station
Clear Clear  
Wind Chill: 63°   Ceiling: Unl
Heat Index: 63°   Visibility: 10mi
Dew Point: 55°   Wind: 0mph
Humidity: 77%   Direction: NA
Pressure: 30.03"   Gusts: NA
Location:  33.6106°N, 89.3673°W
Report Text: KSTF 220015Z AUTO 00000KT 10SM CLR 17/13 A3003 RMK AO2
Loading
Personal Weather Stations






























Interactive Weather Map
Tropical Storm Tracking
New forecast layout! Learn more

10-Day Weather Forecast

Advertisements
Track Severe Weather on mobile